Regional Weather Roundup
Issued by NWS Charleston, SC

Current Version | Previous Version | Text Only | Print | Product List | Glossary Off
Versions: 1 2 3 4 5 6 7 8 9 10 11 12 13 14 15 16 17 18 19 20 21 22 23 24 25 26 27 28 29 30 31 32 33 34 35 36 37 38 39 40 41 42 43 44 45 46 47 48 49 50

000
ASUS42 KCHS 190825
RWRCHS

REGIONAL WEATHER ROUNDUP
NATIONAL WEATHER SERVICE CHARLESTON SC
400 AM EDT FRI SEP 19 2014

NOTE: "FAIR" INDICATES FEW OR NO CLOUDS BELOW 12,000 FEET WITH NO
SIGNIFICANT WEATHER AND/OR OBSTRUCTIONS TO VISIBILITY.

NOT ALL STATIONS ARE QUALITY CONTROLLED BY THE NATIONAL
WEATHER SERVICE. USE DATA WITH CAUTION...ESPECIALLY
DEWPOINT OBSERVATIONS.

SCZ027-030-031-034>040-042>050-190900-
...SOUTH CAROLINA...

CITY           SKY/WX    TMP DP  RH WIND       PRES   REMARKS
N CHARLESTON   MOCLDY    72  69  90 NE6       29.99R
WATERFRONT PRK   N/A     75 N/A N/A N7          N/A
FORT JOHNSON   NOT AVBL
MOUNT PLEASANT FAIR      72  72 100 CALM      29.99S
JOHNS ISLAND   CLOUDY    73  73 100 CALM      29.98F
PINOPOLIS        N/A     73  70  88 E7        29.93S
MONCKS CORNER    N/A     72  72 100 NE5       30.00R
SUMMERVILLE    FAIR      68  68 100 CALM      30.00S
BEAUFORT MCAS  PTCLDY    72  70  93 SW5       29.98R
BEAUFORT ARPT  PTSUNNY   72  72 100 SW3       29.98R
HILTON HEAD IS PTCLDY    70  70 100 E3        29.98S
GEORGETOWN     NOT AVBL
WALTERBORO     PTSUNNY   72 N/A N/A CALM      30.01R
ORANGEBURG     CLOUDY    70  68  93 NE5       30.00F
BARNWELL       FAIR      70  68  94 CALM      30.00F
AIKEN          FAIR      68  68 100 CALM      30.05S FOG
MANNING        PTSUNNY   70 N/A N/A CALM      30.02R
KINGSTREE      NOT AVBL
COLUMBIA       MOCLDY    71  68  90 E3        30.01S
SUMTER         PTCLDY    67  64  87 E6        30.01S
FLORENCE       MOCLDY    67  63  87 E5        30.03S
MYRTLE BEACH   MOCLDY    79  64  61 E10       30.02R
N MYRTLE BEACH PTCLDY    68  63  84 NE5       30.02R

$$

GAZ063-065-086>088-099>101-113>116-118-119-134-136>141-150-190900-
...GEORGIA...

CITY           SKY/WX    TMP DP  RH WIND       PRES   REMARKS
SAVANNAH ARPT  CLEAR     71  68  90 CALM      29.97S
HUNTER AAF     PTCLDY    72  69  92 E3        29.95S
FORT STEWART   PTCLDY    72  69  92 NE2       29.96R
STATESBORO     NOT AVBL
SYLVANIA       PTSUNNY   71  70  98 CALM      30.00R
CLAXTON        FAIR     N/A N/A N/A CALM      29.98R
THOMSON        MOCLDY    67  67 100 CALM      30.06S
AUGUSTA-BUSH   MOCLDY    66  66 100 CALM      29.99S
AUGUSTA-DANIEL MOCLDY    71  68  90 CALM      30.01S
SWAINSBORO     FAIR      72  72 100 CALM      29.99F
VIDALIA        MOCLDY    72  70  94 CALM      29.98S
ALMA           MOCLDY    72  70  93 CALM      29.96S FOG
WAYCROSS       PTCLDY    74  74  99 CALM      29.96S FOG
JESUP          FAIR      75  73  94 CALM      29.97R
BRUNSWICK      PTCLDY    73  72  94 CALM      29.96R
SAINT SIMONS   MOCLDY    77  73  87 NW3       29.94S

$$

SCZ027-028-034-036>038-045-046-048>050-GAZ119-141-190900-
...LAKE AND SUPPLEMENTAL COASTAL OBSERVATIONS...

STATION/POSITION TIME  TEMP    WIND        PRES    WAVE   SWELL
                       AIR SEA DIR/SP/G            HT/PER HT/PER/DIR
                 (UTC) (F)     (DEG/KT/KT) (MB)    (FT/S) (FT/S/D)
UPR LAKE MARION  NOT AVBL
WINYAH BAY       0800   79      90/ 12     1015.0S
LAKE MURRAY      0700   72     100/  3/  4 1015.9S
ACE BASIN NERRS  0800   70        CALM     1015.0S
FORT PULASKI     0800   77     110/  5/  6 1014.9R
SAPELO ISLAND    0800   75     100/  4     1014.0S

$$

ANZ835-935-AMZ111-154-330-350-352-354-374-450-454-472-190900-
...C-MAN AND BUOY OBSERVATIONS...

STATION/POSITION TIME  TEMP    WIND        PRES    WAVE   SWELL
                       AIR SEA DIR/SP/G            HT/PER HT/PER/DIR
                 (UTC) (F)     (DEG/KT/KT) (MB)    (FT/S) (FT/S/D)
FOLLY BEACH CMAN 0800   80      60/  4/  5 1015.5R
BUOY 41004       0800   80 83   70/  8/ 10 1014.5F   3/ 7   3/ 7
BUOY 41008       0800   78 84   40/ 16/ 21 1013.9F   2/ 9   2/ 50/ 9
5E ST. MARYS GA  0800      84                N/A     2/12   2/ 80/12
FRYING PAN BUOY  NOT AVBL
BUOY 41025       0800   74      30/ 16/ 23 1016.9F   5/ 6   3/ 60/ 8
CAPE LOOKOUT NC  0800   72      20/ 11/ 13 1017.3S
BUOY 41002       0717   78 82   60/ 14/ 16 1015.3F   3/10   2/ 90/10
BUOY 41010       0800   82 85   70/  6/  8 1013.2F   3/10   3/ 60/10
BUOY 41012       NOT AVBL
ST AUGUSTINE FL  0800   76     290/  4/  4 1014.2S
CAPERS NEARSHORE 0700   79      90/ 10/ 12   N/A
FRIPP NEARSHORE  NOT AVBL


$$



USA.gov is the U.S. government's official web portal to all federal, state and local government web resources and services.